Warminster, United Kingdom
Current Conditions -  °F | °C
As of 7:50 PM on Thursday 23 Oct 2014 (Local Time) from EGDM Reporting Station
Broken Clouds Broken Clouds  
Wind Chill: 57°   Ceiling: 1100
Heat Index: 57°   Visibility: 6mi
Dew Point: 55°   Wind: 9mph
Humidity: 94%   Direction: 200°SSW
Pressure: 30.03"   Gusts: NA
Location:  51.2°N, 2.18°W
Report Text: EGDM 231850Z AUTO 20008KT 9999 BKN011/// SCT035/// 14/13 Q1017
Loading
Personal Weather Stations






























Interactive Weather Map
Tropical Storm Tracking
New forecast layout! Learn more

10-Day Weather Forecast

Advertisements
Track Severe Weather on mobile